x

Portage Canal, Mi (pclm4) Weather Station

11:40pm - Fri 17th Nov 2017 All times are CST. -6 hours from GMT.

  • Wind
    11mph, 15mph gusts
  • Air Temp 38°f
  • Sea Pressure 1005.8mb
  • Portage Canal, Mi
  • Portage Canal, Mi

More Historic Weather Station data

Upgrade to MSW Pro to gain access to the past 30 days of data for over 8000 Wavebouys and Weather Stations around the globe.

Join

Comparision Forecast

View Surf forecast
   
Fri 11/17 11:40pm 11 15 mph 1005.8mb 38f
11:30pm 7 9 mph 1005.8mb 38f
11:20pm 9 11 mph 1005.4mb 38f
11:10pm 8 11 mph 1005.8mb 38f
11:00pm 10 14 mph 1005.4mb 38f
10:40pm 11 14 mph 1005.4mb 38f
10:30pm 11 14 mph 1005.4mb 38f
10:20pm 14 16 mph 1005.8mb 38f
10:10pm 11 14 mph 1005.8mb 37f
10:00pm 10 11 mph 1005.4mb 37f
9:40pm 6 8 mph 1004.7mb 37f
9:30pm 7 10 mph 1005.1mb 37f
9:20pm 10 13 mph 1005.4mb 37f
9:10pm 10 13 mph 1005.8mb 35f
9:00pm 1 5 mph 1005.8mb 33f
8:40pm 2 3 mph 1005.8mb 33f
8:30pm 1 6 mph 1006.1mb 33f
8:20pm 3 6 mph 1006.1mb 33f
8:10pm 2 6 mph 1006.1mb 33f
8:00pm 5 6 mph 1006.1mb 33f
7:40pm 3 6 mph 1006.1mb 33f
7:30pm 2 6 mph 1006.1mb 33f
7:20pm 2 6 mph 1006.1mb 33f
7:10pm 3 7 mph 1006.4mb 33f
7:00pm 3 6 mph 1006.1mb 33f
6:40pm 2 3 mph 1006.4mb 32f
6:30pm 2 5 mph 1006.8mb 32f
6:20pm  -  0 mph 1006.8mb 32f
6:10pm  -  0 mph 1006.8mb 32f
6:00pm  -  0 mph 1006.8mb 32f
5:40pm  -  0 mph 1006.8mb 32f
5:30pm  -  0 mph 1006.8mb 32f
5:20pm  -  0 mph 1006.8mb 32f
5:10pm  -  0 mph 1006.8mb 32f
5:00pm  -  0 mph 1006.8mb 32f
4:40pm 1 2 mph 1006.8mb 33f
4:30pm 1 3 mph 1006.8mb 33f
4:20pm 2 5 mph 1006.8mb 33f
4:10pm  -  3 mph 1006.8mb 33f
4:00pm  -  3 mph 1006.8mb 32f
3:40pm 2 5 mph 1007.1mb 33f
3:30pm 2 3 mph 1007.1mb 33f
3:20pm 1 5 mph 1007.1mb 33f
3:10pm 2 5 mph 1007.1mb 33f
3:00pm 2 5 mph 1007.1mb 33f
2:40pm 2 5 mph 1007.1mb 33f
2:30pm  -  2 mph 1007.1mb 33f
2:20pm 1 3 mph 1007.1mb 33f
2:10pm 2 3 mph 1007.5mb 33f
2:00pm  -  2 mph 1007.8mb 33f
1:40pm  -  2 mph 1007.8mb 33f
1:30pm  -  2 mph 1007.8mb 33f
1:20pm  -  1 mph 1008.1mb 33f
1:10pm  -  2 mph 1008.1mb 33f
1:00pm 2 3 mph 1008.5mb 34f
12:40pm 1 3 mph 1008.5mb 35f
12:30pm 2 6 mph 1008.5mb 35f
12:20pm 2 7 mph 1008.5mb 35f
12:10pm 3 7 mph 1008.8mb 35f
12:00pm 3 7 mph 1008.8mb 35f
11:40am 6 9 mph 1008.8mb 35f
11:30am 2 9 mph 1008.8mb 35f
11:20am 7 11 mph 1009.5mb 35f
11:10am 5 10 mph 1009.5mb 35f
11:00am 6 11 mph 1009.5mb 35f
10:40am 7 17 mph 1009.8mb 35f
10:30am 8 18 mph 1009.5mb 35f
10:20am 10 20 mph 1009.8mb 35f
10:10am 13 25 mph 1009.5mb 35f
10:00am 8 32 mph 1009.5mb 35f
9:55am 14 32 mph 1009.5mb 35f
9:40am 11 29 mph 1010.2mb 35f
9:30am 11 32 mph 1010.2mb 35f
9:20am 8 26 mph 1010.2mb 35f
9:10am 10 29 mph 1010.5mb 36f
9:00am 11 31 mph 1010.8mb 36f
8:47am 11 31 mph 1010.8mb 35f
8:40am 11 31 mph 1010.8mb 35f
8:30am 14 26 mph 1010.8mb 35f
8:20am 13 29 mph 1011.2mb 35f
8:10am 11 25 mph 1011.2mb 34f
8:00am 10 20 mph 1011.2mb 34f
7:45am 11 30 mph 1011.5mb 33f
7:40am 11 26 mph 1011.5mb 33f
7:30am 14 25 mph 1011.9mb 33f
7:20am 11 26 mph 1012.5mb 33f
7:10am 10 23 mph 1013.2mb 33f
7:00am 13 22 mph 1013.2mb 33f
6:42am 9
mph
1013.9mb 33f
6:40am 11 28 mph 1014.2mb 33f
6:30am 13 25 mph 1014.6mb 33f
6:20am 11 28 mph 1014.6mb 32f
6:10am 13 24 mph 1014.6mb 32f
6:00am 14 26 mph 1014.2mb 32f
5:41am 15 32 mph 1014.6mb 32f
5:40am 15 29 mph 1014.6mb 32f
5:30am 15 26 mph 1014.6mb 32f
5:20am 9 23 mph 1014.6mb 31f
5:10am 14 29 mph 1014.9mb 31f
5:00am 14 28 mph 1015.2mb 31f
4:41am 3 18 mph 1016.6mb 30f
4:40am 3 18 mph 1016.3mb 30f
4:30am 5 18 mph 1016.3mb 30f
4:20am 6 10 mph 1016.9mb 29f
4:10am 5 10 mph 1017.6mb 29f
4:00am 6 14 mph 1017.9mb 30f
3:40am 5 23 mph 1017.6mb 29f
3:30am 11 26 mph 1016.3mb 29f
3:20am 15 28 mph 1016.3mb 28f
3:10am 14 26 mph 1016.6mb 28f
3:00am 14 24 mph 1016.6mb 28f
2:40am 10 25 mph 1017.6mb 28f
2:30am 9 22 mph 1017.9mb 28f
2:20am 5 18 mph 1018.6mb 27f
2:10am 3 13 mph 1019.3mb 27f
2:00am 5 9 mph 1020.3mb 27f
1:40am 6 13 mph 1021.3mb 27f
1:30am 7 14 mph 1021.7mb 27f
1:20am 3 8 mph 1022mb 27f
1:10am 7 13 mph 1022.4mb 27f
1:00am 6 10 mph 1022.4mb 27f
12:50am 2 7 mph 1022.4mb 27f
12:40am 2 10 mph 1022.4mb 27f
12:30am 3 9 mph 1022.4mb 27f
12:20am 3 9 mph 1022.4mb 27f
12:10am 1 13 mph 1022.4mb 27f
12:00am 2 8 mph 1022.4mb 27f
Thu 11/16 11:50pm 6 14 mph 1022.7mb 27f
11:40pm 2 10 mph 1022.7mb 27f
11:30pm 2 10 mph 1023.4mb 27f
11:20pm 2 7 mph 1023.4mb 27f
11:10pm 5 8 mph 1023.7mb 27f
11:00pm 3 7 mph 1023.7mb 27f
10:50pm 1 3 mph 1023.7mb 27f
10:40pm 3 7 mph 1023.7mb 27f
10:30pm 2 5 mph 1023.7mb 27f
10:20pm 2 5 mph 1023.4mb 26f
10:10pm 1 9 mph 1023.7mb 26f
10:00pm 3 8 mph 1023.7mb 26f
9:50pm 1 6 mph 1023.4mb 26f
9:40pm 3 7 mph 1023.4mb 25f
9:30pm 3 6 mph 1023.7mb 25f
9:20pm 2 7 mph 1023.7mb 24f
9:10pm 6 7 mph 1024mb 24f
9:00pm 5 6 mph 1024.4mb 24f
8:50pm 5 6 mph 1024.4mb 24f
8:40pm 3 6 mph 1024.4mb 24f
8:30pm 3 9 mph 1024.4mb 24f
8:20pm 5 8 mph 1024.4mb 24f
8:10pm 3 8 mph 1024.7mb 24f
8:00pm 7 9 mph 1024.7mb 24f
7:50pm 7 10 mph 1025.1mb 24f
7:40pm 3 7 mph 1025.4mb 24f
7:30pm 5 8 mph 1025.4mb 24f
7:20pm 5 8 mph 1025.4mb 24f
7:10pm 5 8 mph 1025.7mb 24f
7:00pm 6 9 mph 1026.1mb 24f
6:50pm 3 6 mph 1026.1mb 24f
6:40pm 2 3 mph 1026.4mb 24f
6:30pm 2 5 mph 1026.4mb 24f
6:20pm 3 6 mph 1026.4mb 24f
6:10pm 1 6 mph 1026.8mb 24f
6:00pm 3 7 mph 1026.8mb 24f
5:50pm 2 6 mph 1026.8mb 24f
5:40pm 1 6 mph 1026.8mb 24f
5:30pm 3 6 mph 1026.8mb 25f
5:20pm 1 5 mph 1026.8mb 25f
5:10pm  -  2 mph 1027.1mb 25f
5:00pm  -  3 mph 1026.8mb 25f
4:50pm 2 6 mph 1026.8mb 25f
4:40pm 3 6 mph 1026.8mb 25f
4:30pm 1 9 mph 1026.8mb 25f
4:20pm 6 8 mph 1026.8mb 25f
4:10pm 3 7 mph 1026.8mb 25f
4:00pm 3 6 mph 1026.8mb 25f
3:50pm 1 5 mph 1026.8mb 25f
3:40pm 3 5 mph 1026.8mb 26f
3:30pm 1 5 mph 1026.8mb 26f
3:20pm  -  7 mph 1026.8mb 25f
3:10pm 1 5 mph 1026.8mb 25f
3:00pm 3 5 mph 1027.1mb 26f
2:50pm 2 7 mph 1027.1mb 26f
2:40pm 5 7 mph 1026.8mb 26f
2:30pm 5 9 mph 1026.8mb 26f
2:20pm 2 7 mph 1026.8mb 26f
2:10pm 2 9 mph 1026.8mb 26f
2:00pm 7 10 mph 1026.8mb 26f
1:50pm 1 8 mph 1026.8mb 26f
1:40pm 3 9 mph 1026.8mb 26f
1:30pm 5 9 mph 1026.8mb 26f
1:20pm 5 9 mph 1026.8mb 26f
1:10pm 5 10 mph 1026.8mb 26f
1:00pm 5 9 mph 1026.8mb 26f
12:50pm 5 8 mph 1026.8mb 26f
12:40pm 6 10 mph 1027.1mb 27f
12:30pm 9 13 mph 1027.1mb 26f
12:20pm 2 10 mph 1026.8mb 26f
12:10pm 6 10 mph 1026.8mb 26f
12:00pm 6 11 mph 1026.8mb 26f
11:50am 8 15 mph 1026.8mb 27f
11:40am 11 15 mph 1026.8mb 27f
11:30am 7 15 mph 1026.8mb 27f
11:20am 8 16 mph 1026.8mb 27f
11:10am 13 17 mph 1026.8mb 27f
11:00am 14 21 mph 1026.8mb 27f
10:50am 9 15 mph 1027.1mb 26f
10:40am 7 16 mph 1027.4mb 27f
10:30am 14 18 mph 1027.1mb 27f
10:20am 10 17 mph 1027.1mb 27f
10:10am 9 15 mph 1027.1mb 27f
10:00am 9 17 mph 1026.8mb 27f
9:50am 9 15 mph 1026.4mb 27f
9:40am 8 17 mph 1026.4mb 27f
9:30am 16 24 mph 1026.4mb 28f
9:20am 9 24 mph 1026.4mb 27f
9:10am 8 22 mph 1026.1mb 27f
9:00am 16 24 mph 1026.1mb 28f
8:50am 16 28 mph 1026.1mb 28f
8:40am 15 24 mph 1026.1mb 28f
8:30am 21 25 mph 1026.1mb 28f
8:20am 17 23 mph 1026.1mb 28f
8:10am 18 24 mph 1025.7mb 28f
8:00am 14 24 mph 1025.4mb 28f
7:50am 13 26 mph 1025.4mb 28f
7:40am 18 29 mph 1025.1mb 28f
7:30am 20 29 mph 1025.1mb 28f
7:20am 23 28 mph 1024.7mb 28f
7:10am 21 28 mph 1024.7mb 28f
7:00am 17 29 mph 1024.7mb 28f
6:50am 21 26 mph 1024.4mb 28f
6:40am 14 31 mph 1024.4mb 28f
6:30am 14 28 mph 1024mb 28f
6:20am 20 30 mph 1024mb 28f
6:10am 22 26 mph 1024mb 28f
6:00am 24 30 mph 1024mb 29f
5:50am 23 31 mph 1023.7mb 29f
5:46am 22 29 mph 1023.4mb 29f
5:40am 23 32 mph 1023.7mb 29f
5:30am 22 28 mph 1023.4mb 29f
5:20am 25 32 mph 1023mb 29f
5:10am 22 34 mph 1023mb 29f
5:00am 26 32 mph 1023mb 29f
4:50am 28 31 mph 1023mb 29f
4:40am 25 31 mph 1022.7mb 29f
4:30am 24 31 mph 1022.4mb 29f
4:20am 25 31 mph 1022.4mb 29f
4:10am 22 33 mph 1022mb 29f
4:00am 28 33 mph 1022mb 29f
3:50am 23 31 mph 1021.7mb 29f
3:41am 24 31 mph 1021.3mb 29f
3:40am 24 34 mph 1021.3mb 29f
3:30am 26 36 mph 1021.3mb 29f
3:20am 26 32 mph 1021mb 30f
3:10am 26 32 mph 1021mb 30f
3:00am 28 36 mph 1020.7mb 30f
2:50am 28 34 mph 1020.3mb 30f
2:40am 25 34 mph 1020.3mb 30f
2:30am 25 34 mph 1020mb 30f
2:20am 25 36 mph 1019.6mb 31f
2:10am 26 36 mph 1019.6mb 31f
2:00am 28 36 mph 1019.3mb 31f
1:50am 26 33 mph 1019.3mb 31f
1:40am 29 34 mph 1019mb 31f
1:30am 29 33 mph 1018.6mb 31f
1:20am 29 37 mph 1018.3mb 31f
1:10am 26 36 mph 1018.3mb 31f
1:00am 28 33 mph 1018.3mb 31f
12:50am 28 38 mph 1017.9mb 31f
12:40am 29 37 mph 1017.9mb 31f
12:30am 28 33 mph 1017.6mb 31f
12:20am 26 34 mph 1017.3mb 31f
12:10am 25 36 mph 1016.9mb 31f
12:00am 26 36 mph 1016.9mb 31f
Wed 11/15 11:50pm 26 34 mph 1016.6mb 31f
11:40pm 29 37 mph 1016.6mb 31f
11:30pm 29 37 mph 1016.3mb 31f
11:20pm 29 37 mph 1016.3mb 31f
11:10pm 28 37 mph 1015.9mb 32f
11:00pm 28 36 mph 1015.6mb 32f
10:50pm 28 36 mph 1015.2mb 32f
10:40pm 30 37 mph 1014.9mb 32f
10:38pm 28 32 mph 1014.9mb 32f
10:30pm 28 37 mph 1014.6mb 32f
10:20pm 29 38 mph 1014.2mb 32f
10:10pm 29 36 mph 1014.2mb 32f
10:00pm 31 38 mph 1013.9mb 32f
9:50pm 29 36 mph 1013.9mb 32f
9:40pm 29 36 mph 1013.9mb 32f
9:30pm 30 37 mph 1013.5mb 32f
9:20pm 28 36 mph 1013.2mb 32f
9:10pm 30 37 mph 1012.9mb 32f
9:00pm 29 37 mph 1012.5mb 32f
8:50pm 32 39 mph 1012.5mb 32f
8:40pm 30 38 mph 1012.2mb 33f
8:37pm 28 31 mph 1012.2mb 33f
8:30pm 28 38 mph 1012.2mb 33f
8:20pm 30 38 mph 1011.9mb 33f
8:10pm 31 39 mph 1011.5mb 33f
8:00pm 29 37 mph 1011.5mb 33f
7:50pm 29 39 mph 1011.2mb 33f
7:40pm 28 38 mph 1010.8mb 33f
7:36pm 30
mph
1010.8mb 34f
7:30pm 26 39 mph 1010.5mb 34f
7:20pm 29 38 mph 1010.5mb 34f
7:10pm 30 38 mph 1010.2mb 34f
7:00pm 29 37 mph 1010.2mb 34f
6:50pm 25 34 mph 1009.8mb 35f
6:40pm 28 37 mph 1009.5mb 35f
6:36pm 26 31 mph 1009.5mb 35f
6:30pm 29 33 mph 1009.5mb 35f
6:20pm 30 36 mph 1009.1mb 35f
6:10pm 24 34 mph 1009.1mb 36f
6:00pm 26 33 mph 1008.8mb 36f
5:50pm 26 34 mph 1008.8mb 36f
5:40pm 26 32 mph 1008.5mb 36f
5:36pm 24 29 mph 1008.5mb 36f
5:30pm 23 29 mph 1008.5mb 36f
5:20pm 22 30 mph 1008.1mb 36f
5:10pm 21 29 mph 1008.1mb 37f
5:00pm 22 29 mph 1008.1mb 37f
4:50pm 21 28 mph 1007.8mb 38f
4:40pm 24 29 mph 1007.5mb 38f
4:34pm 24 29 mph 1007.5mb 39f
4:30pm 22 25 mph 1007.5mb 39f
4:20pm 18 25 mph 1007.1mb 39f
4:10pm 22 24 mph 1007.1mb 40f
4:00pm 21 25 mph 1007.1mb 39f
3:50pm 22 24 mph 1006.8mb 39f
3:40pm 22 25 mph 1006.8mb 39f
3:30pm 23 25 mph 1006.8mb 39f
3:20pm 20 26 mph 1006.8mb 39f
3:10pm 23 28 mph 1006.8mb 40f
3:00pm 21 25 mph 1006.4mb 40f
2:50pm 20 28 mph 1006.4mb 40f
2:40pm 20 25 mph 1006.1mb 40f
2:30pm 21 23 mph 1006.1mb 41f
2:20pm 16 20 mph 1006.1mb 41f
2:10pm 16 20 mph 1005.8mb 41f
2:00pm 13 17 mph 1005.8mb 41f
1:50pm 11 16 mph 1005.8mb 41f
1:40pm 15 17 mph 1005.8mb 41f
1:30pm 14 17 mph 1005.8mb 41f
1:20pm 15 17 mph 1005.8mb 41f
1:10pm 11 15 mph 1005.8mb 42f
1:00pm 10 11 mph 1005.8mb 42f
12:50pm 9 11 mph 1005.8mb 42f
12:40pm 8 11 mph 1005.8mb 42f
12:30pm 10 13 mph 1005.8mb 42f
12:20pm 10 13 mph 1005.8mb 42f
12:10pm 13 14 mph 1006.1mb 42f
12:00pm 11 13 mph 1006.1mb 42f
11:50am 11 15 mph 1006.1mb 42f
11:40am 13 16 mph 1006.1mb 42f
11:30am 11 14 mph 1006.4mb 41f
11:20am 11 13 mph 1006.4mb 41f
11:10am 11 13 mph 1006.8mb 41f
11:00am 10 13 mph 1006.8mb 41f
10:50am 10 10 mph 1006.8mb 41f
10:40am 9 10 mph 1006.8mb 41f
10:30am 9 10 mph 1006.8mb 41f
10:20am  -  2 mph 1007.1mb 40f
10:10am  -  2 mph 1007.1mb 40f
10:00am  -  1 mph 1007.1mb 39f
9:50am 1 2 mph 1007.5mb 39f
9:40am 1 3 mph 1007.5mb 39f
9:30am 2 3 mph 1007.5mb 39f
9:20am 2 3 mph 1007.8mb 39f
9:10am 1 3 mph 1007.8mb 39f
9:00am 1 2 mph 1008.1mb 39f
8:50am 1 3 mph 1008.1mb 39f
8:40am 2 3 mph 1008.1mb 39f
8:30am 2 3 mph 1008.1mb 39f
8:20am 2 3 mph 1008.1mb 38f
8:10am 2 3 mph 1008.1mb 38f
8:00am 2 5 mph 1008.5mb 38f
7:50am 2 5 mph 1008.5mb 38f
7:40am 1 3 mph 1008.5mb 38f
7:30am 3 5 mph 1008.5mb 38f
7:20am 2 5 mph 1008.5mb 38f
7:10am 2 3 mph 1008.5mb 38f
7:00am 2 5 mph 1008.5mb 38f
6:50am 2 6 mph 1008.5mb 38f
6:40am 3 6 mph 1008.8mb 38f
6:30am 2 5 mph 1008.8mb 38f
6:20am 3 5 mph 1009.1mb 38f
6:10am 3 5 mph 1009.1mb 38f
6:00am 2 6 mph 1009.1mb 38f
5:50am 2 5 mph 1009.1mb 38f
5:40am 3 6 mph 1009.5mb 38f
5:30am 3 5 mph 1009.5mb 38f
5:20am 3 6 mph 1009.5mb 38f
5:10am 2 6 mph 1009.5mb 38f
5:00am 2 6 mph 1009.8mb 38f
4:50am 3 6 mph 1009.8mb 38f
4:40am 3 7 mph 1010.2mb 38f
4:30am 3 7 mph 1010.2mb 39f
4:20am 3 7 mph 1010.2mb 39f
4:10am 3 6 mph 1010.2mb 39f
4:00am 3 7 mph 1010.2mb 39f
3:50am 3 6 mph 1010.2mb 39f
3:40am 2 7 mph 1010.5mb 39f
3:30am 3 9 mph 1010.8mb 39f
3:20am 5 10 mph 1010.8mb 39f
3:10am 3 8 mph 1010.8mb 39f
3:00am 3 8 mph 1011.2mb 39f
2:50am 3 10 mph 1011.2mb 39f
2:40am 3 7 mph 1011.5mb 39f
2:30am 5 9 mph 1011.2mb 39f
2:20am 5 8 mph 1011.5mb 39f
2:10am 3 9 mph 1011.5mb 39f
2:00am 3 9 mph 1011.9mb 39f
1:50am 5 8 mph 1011.9mb 39f
1:40am 3 8 mph 1011.9mb 39f
1:30am 5 10 mph 1012.2mb 39f
1:20am 5 11 mph 1012.2mb 39f
1:10am 3 9 mph 1012.2mb 39f
1:00am 5 8 mph 1012.2mb 39f
12:50am 3 7 mph 1012.5mb 39f
12:40am 3 8 mph 1012.5mb 39f
12:30am 6 10 mph 1012.9mb 39f
12:20am 3 13 mph 1012.9mb 39f
12:10am 3 11 mph 1012.9mb 39f
12:00am 3 9 mph 1013.2mb 39f
Tue 11/14 11:50pm 3 11 mph 1013.2mb 39f
11:40pm 3 8 mph 1013.5mb 39f
11:30pm 5 8 mph 1013.5mb 39f
11:20pm 3 7 mph 1013.5mb 39f
11:10pm 6 10 mph 1013.5mb 39f
11:00pm 7 13 mph 1013.5mb 39f
10:50pm 5 10 mph 1013.9mb 39f
10:40pm 5 13 mph 1013.9mb 39f
10:30pm 6 14 mph 1013.9mb 39f
10:20pm 7 11 mph 1013.9mb 40f
10:10pm 7 14 mph 1013.9mb 40f
10:00pm 7 13 mph 1013.9mb 40f
9:50pm 6 11 mph 1014.2mb 40f
9:40pm 7 10 mph 1014.2mb 40f
9:30pm 6 10 mph 1014.2mb 40f
9:20pm 6 13 mph 1014.2mb 40f
9:10pm 6 11 mph 1014.2mb 40f
9:00pm 6 11 mph 1014.6mb 40f
8:50pm 7 11 mph 1014.6mb 39f
8:40pm 6 13 mph 1014.6mb 39f
8:30pm 3 10 mph 1014.6mb 39f
8:20pm 6 13 mph 1014.6mb 39f
8:10pm 5 11 mph 1014.6mb 39f
8:00pm 6 11 mph 1014.6mb 39f
7:50pm 5 14 mph 1014.6mb 39f
7:40pm 5 9 mph 1014.6mb 39f
7:30pm 3 9 mph 1014.9mb 39f
7:20pm 5 11 mph 1014.9mb 39f
7:10pm 6 14 mph 1015.2mb 39f
7:00pm 5 11 mph 1015.2mb 39f
6:50pm 6 13 mph 1015.2mb 39f
6:40pm 6 11 mph 1015.2mb 39f
6:30pm 5 11 mph 1015.6mb 39f
6:20pm 5 9 mph 1015.6mb 39f
6:10pm 6 13 mph 1015.6mb 39f
6:00pm 5 10 mph 1015.6mb 39f
5:50pm 6 9 mph 1015.6mb 39f
5:40pm 6 9 mph 1015.9mb 39f
5:30pm 3 9 mph 1015.9mb 39f
5:20pm 5 14 mph 1015.9mb 39f
5:10pm 6 11 mph 1015.9mb 39f
5:00pm 3 8 mph 1015.9mb 39f
4:50pm 3 11 mph 1015.9mb 40f
4:40pm 6 13 mph 1015.9mb 40f
4:30pm 5 10 mph 1016.3mb 40f
4:20pm 6 10 mph 1016.3mb 40f
4:10pm 5 10 mph 1016.3mb 40f
4:00pm 7 11 mph 1016.6mb 40f
3:50pm 6 13 mph 1016.3mb 40f
3:40pm 3 9 mph 1016.6mb 40f
3:30pm 5 9 mph 1016.6mb 40f
3:20pm 3 10 mph 1016.6mb 40f
3:10pm 5 9 mph 1016.9mb 40f
3:00pm 6 11 mph 1016.6mb 40f
2:50pm 3 8 mph 1016.9mb 40f
2:40pm 3 9 mph 1016.9mb 40f
2:30pm 5 10 mph 1016.9mb 40f
2:20pm 5 9 mph 1016.9mb 40f
2:10pm 6 11 mph 1017.3mb 40f
2:00pm 3 8 mph 1017.3mb 41f
1:50pm 5 8 mph 1017.6mb 41f
1:40pm 3 10 mph 1017.6mb 41f
1:30pm 2 9 mph 1017.6mb 41f
1:20pm 5 10 mph 1017.6mb 41f
1:10pm 6 9 mph 1017.6mb 40f
1:00pm 3 10 mph 1017.6mb 40f
12:50pm 6 9 mph 1017.9mb 40f
12:40pm 5 9 mph 1017.9mb 40f
12:30pm 5 9 mph 1018.3mb 40f
12:20pm 5 11 mph 1018.6mb 40f
12:10pm 5 11 mph 1018.6mb 40f
12:00pm 2 11 mph 1018.6mb 39f
11:50am 7 11 mph 1019mb 39f
11:40am 6 8 mph 1019.3mb 39f
11:30am 2 9 mph 1019.3mb 39f
11:20am 3 9 mph 1019.6mb 39f
11:10am 3 10 mph 1019.6mb 39f
11:00am 6 10 mph 1019.6mb 39f
10:50am 5 11 mph 1020mb 39f
10:40am 5 10 mph 1020mb 39f
10:30am 6 11 mph 1020.3mb 39f
10:20am 3 8 mph 1020.3mb 39f
10:10am 7 10 mph 1020.7mb 39f
10:00am 6 10 mph 1020.7mb 39f
9:50am 7 11 mph 1020.7mb 39f
9:40am 5 9 mph 1020.7mb 38f
9:30am 5 10 mph 1020.7mb 38f
9:20am 3 10 mph 1020.7mb 38f
9:10am 6 10 mph 1020.7mb 38f
9:00am 5 9 mph 1020.7mb 37f
8:50am 2 8 mph 1021mb 37f
8:40am 5 9 mph 1021mb 37f
8:30am 3 11 mph 1021mb 37f
8:20am 3 8 mph 1021mb 37f
8:10am 5 9 mph 1021mb 37f
8:00am 3 8 mph 1021mb 37f
7:50am 5 8 mph 1021mb 37f
7:40am 5 9 mph 1021mb 37f
7:30am 5 8 mph 1021mb 37f